Deer Park, WA
on Friday, January 18, 2013

Friday
Previous Day Next Day
Daily Summary
 ActualAverageRecord
Temperature
Mean Temperature °F 28°F  
Max Temperature 24°F 34°F 37°F (2005)
Min Temperature 3°F 22°F 3°F (2013)
Degree Days
Heating Degree Days 51 37  
Month to date heating degree days 786 694  
Since 1 July heating degree days 3579 3921  
Cooling Degree Days 0 0  
Month to date cooling degree days 0 0  
Year to date cooling degree days 0 0  
Moisture
Dew Point 13°F   
Average Humidity 92    
Maximum Humidity 100    
Minimum Humidity 83    
Precipitation
Precipitation 0.00 in 0.08 in 0.26 in (2012)
Month to date precipitation 1.11 1.74  
Year to date precipitation 1.11 1.74  
Wind
Wind Speed 1 mph   
Max Wind Speed 6 mph   
Max Gust Speed 6 mph   
Visibility 4 miles   
Events Fog   

Key: T is trace of precipitation, MM is missing value
Source: NWS Daily Summary
Time(PST)TemperatureDew PointHumidity Pressure Visibility Wind DirectionWind SpeedGust SpeedPrecipitationEvents Conditions
12:00 AM 17.6°F 17.6°F 100% 30.34 in 1.0 miles Calm Calm - N/A   Mist
12:16 AM 17.6°F 17.6°F 100% 30.33 in 0.5 miles Calm Calm - N/A Fog Light Freezing Fog
12:53 AM 17.1°F 16.0°F 96% 30.44 in 0.2 miles Calm Calm - N/A Fog Light Freezing Fog
1:53 AM 17.1°F 15.1°F 92% 30.43 in 0.2 miles Calm Calm - N/A Fog Light Freezing Fog
2:17 AM 15.8°F 14.0°F 93% 30.34 in 2.5 miles Calm Calm - N/A   Overcast
2:24 AM 15.8°F 14.0°F 93% 30.34 in 4.0 miles Calm Calm - N/A   Overcast
2:35 AM 17.6°F 14.0°F 86% 30.33 in 5.0 miles Calm Calm - N/A   Overcast
2:44 AM 17.6°F 14.0°F 86% 30.33 in 5.0 miles Calm Calm - N/A   Overcast
2:53 AM 17.1°F 14.0°F 88% 30.43 in 6.0 miles Calm Calm - N/A   Overcast
3:35 AM 15.8°F 14.0°F 93% 30.32 in 6.0 miles Calm Calm - N/A   Scattered Clouds
3:49 AM 15.8°F 12.2°F 86% 30.32 in 6.0 miles Calm Calm - N/A   Mostly Cloudy
3:53 AM 16.0°F 12.9°F 88% 30.42 in 6.0 miles Calm Calm - N/A   Mostly Cloudy
4:23 AM 15.8°F 12.2°F 86% 30.30 in 6.0 miles Calm Calm - N/A   Overcast
4:49 AM 15.8°F 12.2°F 86% 30.30 in 6.0 miles Calm Calm - N/A   Partly Cloudy
4:53 AM 15.1°F 12.9°F 91% 30.40 in 6.0 miles Calm Calm - N/A   Partly Cloudy
5:44 AM 15.8°F 12.2°F 86% 30.28 in 6.0 miles WNW 3.5 mph - N/A   Mostly Cloudy
5:53 AM 16.0°F 12.9°F 88% 30.39 in 6.0 miles NNW 3.5 mph - N/A   Mostly Cloudy
6:18 AM 15.8°F 12.2°F 86% 30.28 in 5.0 miles NW 3.5 mph - N/A   Scattered Clouds
6:53 AM 16.0°F 14.0°F 92% 30.38 in 6.0 miles Calm Calm - N/A   Clear
7:53 AM 17.1°F 14.0°F 88% 30.38 in 6.0 miles Calm Calm - N/A   Clear
8:53 AM 17.1°F 15.1°F 92% 30.39 in 6.0 miles Calm Calm - N/A   Clear
9:53 AM 18.0°F 16.0°F 92% 30.39 in 7.0 miles Calm Calm - N/A   Clear
10:53 AM 19.9°F 19.0°F 96% 30.38 in 5.0 miles Calm Calm - N/A   Clear
11:53 AM 19.0°F 18.0°F 96% 30.37 in 6.0 miles Calm Calm - N/A   Clear
12:53 PM 21.9°F 21.0°F 96% 30.35 in 6.0 miles Calm Calm - N/A   Partly Cloudy
1:53 PM 21.9°F 19.0°F 89% 30.33 in 6.0 miles West 3.5 mph - N/A   Clear
2:27 PM 19.4°F 17.6°F 93% 30.24 in 2.0 miles Calm Calm - N/A   Clear
2:40 PM 23.0°F 21.2°F 93% 30.24 in 5.0 miles Calm Calm - N/A   Clear
2:53 PM 21.9°F 19.9°F 92% 30.34 in 4.0 miles Calm Calm - N/A   Clear
3:03 PM 21.2°F 19.4°F 93% 30.24 in 1.8 miles Calm Calm - N/A   Clear
3:53 PM 19.0°F 18.0°F 96% 30.36 in 0.8 miles Calm Calm - N/A   Clear
4:07 PM 17.6°F 15.8°F 93% 30.25 in 0.2 miles Calm Calm - N/A Fog Light Freezing Fog
4:53 PM 12.0°F 12.0°F 100% 30.38 in 0.2 miles Calm Calm - N/A Fog Light Freezing Fog
5:01 PM 12.2°F 12.2°F 100% 30.26 in 0.2 miles WNW 3.5 mph - N/A Fog Light Freezing Fog
5:50 PM 12.2°F 10.4°F 92% 30.26 in 1.5 miles NE 4.6 mph - N/A   Partly Cloudy
5:53 PM 12.0°F 10.0°F 92% 30.39 in 3.0 miles ENE 3.5 mph - N/A   Partly Cloudy
6:22 PM 8.6°F 5.0°F 85% 30.26 in 2.5 miles NW 3.5 mph - N/A   Partly Cloudy
6:29 PM 8.6°F 5.0°F 85% 30.26 in 6.0 miles Calm Calm - N/A   Partly Cloudy
6:53 PM 10.0°F 7.0°F 87% 30.40 in 5.0 miles Calm Calm - N/A   Clear
7:53 PM 9.0°F 6.1°F 88% 30.40 in 6.0 miles Calm Calm - N/A   Clear
8:53 PM 7.0°F 3.9°F 87% 30.41 in 8.0 miles Calm Calm - N/A   Clear
9:53 PM 3.9°F 1.0°F 88% 30.43 in 10.0 miles NNW 3.5 mph - N/A   Clear
10:53 PM 7.0°F 3.9°F 87% 30.43 in 9.0 miles Calm Calm - N/A   Clear
11:53 PM 7.0°F 3.9°F 87% 30.45 in 9.0 miles NW 3.5 mph - N/A   Clear
Moon Phase
Jan. 18 Jan. 18 Jan. 26 Feb. 03 Feb. 10
Sunrise:07:31 AM (PST) Moon Rise:10:35 AM (PST)1/18
Sunset:04:29 PM (PST) Moon Set:No Moon Set/

Copyright © 2014 The Weather Underground, Inc.